Location: Stara Lesna
(49.1528°N, 20.2911°E)
Time: 19:09:43
(UTC+02:00)

CZ-2D R/B - Pass Details

Date: 13 July 2020
Orbit: 792 x 844 km, 98.7° (Epoch: 10 August)

Event Time Altitude Azimuth Distance (km) Brightness Sun altitude
Rises 01:19:03 0° 24° (NNE) 3,346 6.8 -18.6°
Reaches altitude 10° 01:21:48 10° 37° (NE) 2,418 5.5 -18.6°
Maximum altitude 01:26:12 26° 93° (E) 1,590 3.7 -18.5°
Enters shadow 01:29:22 15° 138° (SE) 2,068 3.9 -18.4°
